Regional Weather Roundup
Issued by NWS Sioux Falls, SD

Home | Current Version | Previous Version | Graphics & Text | Print | Product List | Glossary Off
Versions: 1 2 3 4 5 6 7 8 9 10 11 12 13 14 15 16 17 18 19 20 21 22 23 24 25 26 27 28 29 30 31 32 33 34 35 36 37 38 39 40 41 42 43 44 45 46 47 48 49 50

000
ASUS43 KFSD 281502
RWRFSD

WEATHER ROUNDUP FOR SE SOUTH DAKOTA/SW MINNESOTA/NW IOWA
NATIONAL WEATHER SERVICE SIOUX FALLS SD
1000 AM CDT THU MAY 28 2015

NOTE: "FAIR" INDICATES FEW OR NO CLOUDS BELOW 12,000 FEET WITH NO
SIGNIFICANT WEATHER AND OR OBSTRUCTIONS TO VISIBILITY.


SDZ038>040-050-052>070-281600-
SOUTHEAST SOUTH DAKOTA

CITY           SKY/WX    TMP DP  RH WIND       PRES   REMARKS
BROOKINGS      CLOUDY    63  57  82 S3        30.05F
CHAMBERLAIN    SUNNY     71  60  68 S15       29.92S
HURON            N/A    N/A N/A N/A MISG      29.93F
MADISON        FAIR      61  61 100 S14       30.04F FOG
MITCHELL       MOSUNNY   73  59  61 SE22      29.95F
SIOUX FALLS    CLOUDY    70  55  59 S10       30.02F
WINNER         FAIR      73  58  59 S15       29.92S
YANKTON        PTSUNNY   73  57  56 S15       29.98F
$$

MNZ071-072-080-081-089-090-097-098-281600-
SOUTHWEST MINNESOTA

CITY           SKY/WX    TMP DP  RH WIND       PRES   REMARKS
FAIRMONT       MOSUNNY   73  54  49 S16       30.07F
JACKSON        MOSUNNY   77  55  47 S16       30.07F
LUVERNE        PTSUNNY   73  54  49 S15       30.04F
MARSHALL       PTSUNNY   75  52  43 SW18G30   30.02S
MONTEVIDEO     PTSUNNY   75  55  50 SW12      30.01S
REDWOOD FALLS  MOSUNNY   78  52  40 SW16      30.03S
TRACY          PTSUNNY   77  52  41 SW21G30   30.04S
WINDOM         MOSUNNY   75  52  43 S16G24    30.06S
WORTHINGTON    MOSUNNY   75  52  43 S23G30    30.05F
$$

IAZ001>003-012>014-020>022-031-032-NEZ013-014-SDZ071-281600-
NORTHWEST IOWA

CITY           SKY/WX    TMP DP  RH WIND       PRES   REMARKS
DENISON        CLOUDY    70  59  68 S10G17    30.06S
ESTHERVILLE    MOSUNNY   72  57  59 S16       30.07F
SIOUX CITY     MOSUNNY   72  57  59 S15       30.04F
SPENCER        MOSUNNY   75  56  51 S15       30.06F
$$

ABBREVIATIONS USED IN REMARKS
   TC - TEMPERATURE IN CELSIUS
  WCI - WIND CHILL INDEX
   HX - HEAT INDEX
  VSB - VISIBILITY



USA.gov is the U.S. government's official web portal to all federal, state and local government web resources and services.